Location: Costa Valle Imagna
(45.8000°N, 9.5000°E)
Time: 07:30:14
(UTC+00:00)

STARLINK-1066 - Pass Details

Date: 17 February 2020
Orbit: 374 x 385 km, 53.0° (Epoch: 31 March)

Event Time Altitude Azimuth Distance (km) Brightness Sun altitude
Exits shadow 05:06:57 13° 218° (SW) 1,235 5.1 -13.7°
Maximum altitude 05:09:35 51° 143° (SE) 492 3.6 -13.3°
Drops below altitude 10° 05:12:39 10° 66° (ENE) 1,405 6.7 -12.7°
Sets 05:14:43 0° 61° (ENE) 2,257 7.8 -12.4°
